AirNav   ProFlight Series 2 Aviation Headset
 
 969 users online  

0TN4 Physicians Medical Regional Center Heliport
Knoxville, Tennessee, USA

GOING TO KNOXVILLE?


FAA INFORMATION EFFECTIVE 16 JULY 2020

Location

FAA Identifier: 0TN4
Lat/Long: 35-59-28.3300N 083-55-38.1800W
35-59.472167N 083-55.636333W
35.9912028,-83.9272722
(estimated)
Elevation: 790 ft. / 241 m (estimated)
Variation: 03W (1985)
From city: 1 mile N of KNOXVILLE, TN
Time zone: UTC -4 (UTC -5 during Standard Time)
Zip code: 37917

Heliport Operations

Heliport use: Private use, MEDICAL.
Activation date: 07/1986
Control tower: no
ARTCC: ATLANTA CENTER
FSS: NASHVILLE FLIGHT SERVICE STATION
Attendance: CONTINUOUS
Wind indicator: lighted
Segmented circle: no
Lights: FOR PERIMETER LGTS CALL 615-545-7896.

Heliport Communications

UNICOM: 123.05
WX AWOS-3 at DKX (3 nm SE): 125.375 (865-579-6151)
WX ASOS at TYS (11 nm S): PHONE 865-981-4053

Nearby radio navigation aids

VOR radial/distance  VOR name  Freq  Var
VXVr346/5.4VOLUNTEER VORTAC116.4003W

 
NDB name  Hdg/Dist  Freq  Var  ID
JEFFERSON256/23.034604WJXT .--- -..- -

Heliport Services

Runway Information

Helipad H1

Dimensions: 50 x 50 ft. / 15 x 15 m
Surface: concrete
Runway edge lights: PERI
Latitude: 35-59.472167N
Longitude: 083-55.636333W
Elevation: 790.0 ft.
Traffic pattern: leftleft

Heliport Ownership and Management from official FAA records

Ownership: Privately-owned
Owner: PRMC
900 E. OAK HILL AVE
KNOXVILLE, TN 37917
Phone 865-545-7954
Manager: DAN MCGRAW
900 E. OAK HILL AVE
KNOXVILLE, TN 37917
Phone (865) 545-8073

Heliport Operational Statistics

Aircraft based on the field: 2
Single engine airplanes: 1
Helicopters: 1
    

Additional Remarks

FOR CD CTC ATLANTA ARTCC AT 770-210-7692.

Instrument Procedures

There are no published instrument procedures at 0TN4.

Some nearby airports with instrument procedures:

KDKX - Knoxville Downtown Island Airport (3 nm SE)
KTYS - Mc Ghee Tyson Airport (11 nm S)
KGKT - Gatlinburg-Pigeon Forge Airport (21 nm E)
KJAU - Colonel Tommy C Stiner Airfield (24 nm NW)
KMOR - Moore-Murrell Airport (29 nm NE)
 
Loc | Ops | Rwys | IFR | FBO | Links
Com | Nav | Svcs | Stats | Notes
Area around 0TN4 (Physicians Medical Regional Center Heliport)
 
Road maps at: MapQuest Bing Google
 
Aerial photo
No photo
 
Sectional chart

 
Airport distance calculator
Flying to Physicians Medical Regional Center Heliport? Find the distance to fly.

From to 0TN4

Sunrise and sunset
Times for 09-Aug-2020
 Local
(UTC-4)
 Zulu
(UTC)
Morning civil twilight06:2410:24
Sunrise06:5110:51
Sunset20:3100:31
Evening civil twilight20:5800:58

Current date and time
Zulu (UTC)  09-Aug-2020 23:15:45
Local (UTC-4)  09-Aug-2020 19:15:45
 
METAR
KDKX 
3nm SE 
092255Z AUTO 00000KT 10SM FEW070 FEW080 32/19 A3008 RMK A01
KTYS 
11nm S 
092253Z 34004KT 10SM FEW050 FEW100 SCT250 33/15 A3008 RMK AO2 SLP173 T03280150
KOQT 
15nm W 
092253Z AUTO VRB03KT 10SM CLR 33/19 A3010 RMK AO2 SLP177 T03280189
TAF
KTYS 
11nm S 
091725Z 0918/1018 28005KT P6SM FEW050 SCT250 FM100300 VRB03KT P6SM SCT040 BKN150 FM100800 VRB03KT P6SM BKN045 OVC120 PROB30 1008/1014 3SM TSRA BR OVC040CB FM101400 24006KT P6SM VCTS BKN035CB OVC100 TEMPO 1014/1018 3SM SHRA BR OVC035
NOTAMs
Click for the latest NOTAMs
NOTAMs are issued by the DoD/FAA and will open in a separate window not controlled by AirNav.

 

 
 

Would you like to see your business listed on this page?

 If your business provides an interesting product or service to pilots, flight crews, aircraft, or users of the Physicians Medical Regional Center Heliport, you should consider listing it here.  To start the listing process, click on the button below
 
Add a business
 

Other Pages about Physicians Medical Regional Center Heliport

Update a link
 
Copyright © AirNav, LLC. All rights reserved. Privacy Policy  Contact